Powrót do katalogu

FENGYUN 1C DEB

AktywnyPO
NORAD 30406·DEBRIS·🇨🇳 China

Wystrzelony May 10, 1999 z Taiyuan Satellite Launch Center

Loading…

Następne Przeloty (najbliższe 24 godziny)

TLE

ŚwieżeSource: Space-Track

Epoka: Sep 14, 2026, 11:13 UTC

1 30406U 99025ADV 26257.46787103  .00000996  00000-0  10689-2 0  9996
2 30406  98.6058 120.3902 0280514 359.3699 117.4078 13.59943504969131

Śledź FENGYUN 1C DEB w czasie rzeczywistym z AllMySat

Download on the App Store